Eveleth, MN

11:21 PM CDT on March 28, 2017 (GMT -0500)
Eveleth-Virginia Municipal

Weather History for KEVM - December, 2013

Change the Weather History Date:

Wednesday, December 4, 2013

  Actual Average Record
Temperature  
Mean Temperature 20 °F -  
Max Temperature 23 °F 27 °F 42 °F (2015)
Min Temperature 17 °F 13 °F -18 °F (1991)
Degree Days  
Heating Degree Days 45    
Moisture  
Dew Point 16 °F    
Average Humidity 86    
Maximum Humidity 93    
Minimum Humidity 80    
Precipitation  
Precipitation 0.06 in - - ()
Sea Level Pressure  
Sea Level Pressure 29.64 in    
Wind  
Wind Speed 10 mph (NE)    
Max Wind Speed 14 mph    
Max Gust Speed 23 mph    
Visibility 5 miles    
Events Snow    
Averages and records for this station are not official NWS values.
T = Trace of Precipitation, MM = Missing Value Source: NWS Daily Summary

Daily Weather History Graph

Daily Weather History Graph

Search for Another Location

Airport or City:

Trip Planner

Search our weather history database for the weather conditions in past years. The results will help you decide how hot, cold, wet, or windy it might be!

Date:

Astronomy

Dec. 04, 2013 Rise Set
Actual Time 7:40 AM CST 4:20 PM CST
Civil Twilight 7:05 AM CST 4:55 PM CST
Nautical Twilight 6:26 AM CST 5:34 PM CST
Astronomical Twilight 5:49 AM CST 6:11 PM CST
Moon 9:06 AM CST (12/4) 6:34 PM CST (12/4)
Length of Visible Light 9h 50m
Length of Day
8h 39m
Waxing Crescent, 4% of the Moon is Illuminated
Dec 4
Waxing Crescent
Dec 9
First Quarter
Dec 17
Full
Dec 25
Last Quarter
Jan 1
New

Hourly Weather History & Observations

Time (CST) Temp. Windchill Dew Point Humidity Pressure Visibility Wind Dir Wind Speed Gust Speed Precip Events Conditions
12:07 AM 19.4 °F 7.2 °F 15.8 °F 86% 29.90 in 3.0 mi NE 11.5 mph - N/A Snow Light Snow
12:26 AM 19.4 °F 7.9 °F 15.8 °F 86% 29.90 in 4.0 mi NE 10.4 mph - N/A Snow Light Snow
12:47 AM 19.4 °F 9.5 °F 15.8 °F 86% 29.91 in 7.0 mi ENE 8.1 mph - N/A Snow Light Snow
1:06 AM 19.4 °F 8.6 °F 14.0 °F 80% 29.91 in 7.0 mi NE 9.2 mph - N/A Snow Light Snow
1:27 AM 19.4 °F 9.5 °F 14.0 °F 80% 29.91 in 10.0 mi ENE 8.1 mph - N/A Snow Light Snow
1:47 AM 17.6 °F 7.3 °F 14.0 °F 86% 29.90 in 7.0 mi NE 8.1 mph - N/A   Overcast
2:07 AM 17.6 °F 6.4 °F 14.0 °F 86% 29.90 in 7.0 mi ENE 9.2 mph - N/A Snow Light Snow
2:26 AM 17.6 °F 6.4 °F 14.0 °F 86% 29.90 in 10.0 mi NE 9.2 mph - N/A Snow Light Snow
2:47 AM 17.6 °F 5.0 °F 14.0 °F 86% 29.88 in 10.0 mi ENE 11.5 mph - N/A   Overcast
3:07 AM 17.6 °F 5.7 °F 14.0 °F 86% 29.88 in 10.0 mi NE 10.4 mph - N/A   Overcast
3:27 AM 17.6 °F 6.4 °F 14.0 °F 86% 29.88 in 10.0 mi NE 9.2 mph - N/A   Overcast
3:47 AM 17.6 °F 6.4 °F 14.0 °F 86% 29.87 in 10.0 mi NE 9.2 mph - N/A   Overcast
4:07 AM 17.6 °F 5.7 °F 14.0 °F 86% 29.86 in 10.0 mi NE 10.4 mph - N/A   Overcast
4:26 AM 17.6 °F 6.4 °F 14.0 °F 86% 29.86 in 10.0 mi NE 9.2 mph - N/A   Overcast
4:47 AM 19.4 °F 6.6 °F 14.0 °F 80% 29.85 in 10.0 mi ENE 12.7 mph 18.4 mph N/A   Overcast
5:07 AM 19.4 °F 7.2 °F 14.0 °F 80% 29.84 in 10.0 mi NE 11.5 mph 16.1 mph N/A   Overcast
5:26 AM 19.4 °F 6.0 °F 14.0 °F 80% 29.81 in 10.0 mi NE 13.8 mph 19.6 mph N/A   Overcast
5:47 AM 19.4 °F 9.5 °F 14.0 °F 80% 29.85 in 7.0 mi NE 8.1 mph - N/A Snow Light Snow
6:07 AM 17.6 °F 5.0 °F 14.0 °F 86% 29.84 in 5.0 mi NE 11.5 mph 16.1 mph N/A Snow Light Snow
6:26 AM 17.6 °F 5.0 °F 14.0 °F 86% 29.82 in 4.0 mi NE 11.5 mph - N/A   Overcast
6:47 AM 17.6 °F 6.4 °F 14.0 °F 86% 29.82 in 1.8 mi NE 9.2 mph 17.3 mph 0.01 in Snow Light Snow
7:07 AM 17.6 °F 5.7 °F 14.0 °F 86% 29.81 in 1.8 mi NE 10.4 mph - N/A Snow Light Snow
7:27 AM 17.6 °F 6.4 °F 14.0 °F 86% 29.80 in 3.0 mi NE 9.2 mph 16.1 mph N/A Snow Light Snow
7:47 AM 17.6 °F 5.0 °F 14.0 °F 86% 29.79 in 10.0 mi NE 11.5 mph 16.1 mph N/A Snow Light Snow
8:07 AM 17.6 °F 5.7 °F 14.0 °F 86% 29.80 in 2.5 mi NE 10.4 mph 17.3 mph N/A Snow Light Snow
8:27 AM 17.6 °F 5.7 °F 14.0 °F 86% 29.79 in 1.0 mi NE 10.4 mph 16.1 mph N/A Snow Light Snow
8:47 AM 19.4 °F 7.9 °F 15.8 °F 86% 29.77 in 0.8 mi NE 10.4 mph 17.3 mph N/A Snow Light Snow
9:07 AM 19.4 °F 7.2 °F 15.8 °F 86% 29.76 in 0.8 mi NE 11.5 mph 18.4 mph 0.01 in Snow Light Snow
9:27 AM 19.4 °F 7.2 °F 15.8 °F 86% 29.76 in 1.0 mi NE 11.5 mph 18.4 mph 0.01 in Snow Light Snow
9:47 AM 19.4 °F 7.9 °F 15.8 °F 86% 29.74 in 1.0 mi NE 10.4 mph - 0.01 in Snow Light Snow
10:07 AM 21.2 °F 9.5 °F 17.6 °F 86% 29.73 in 1.0 mi NE 11.5 mph 18.4 mph N/A Snow Light Snow
10:27 AM 21.2 °F 10.1 °F 17.6 °F 86% 29.73 in 0.8 mi ENE 10.4 mph 17.3 mph N/A Snow Light Snow
10:47 AM 21.2 °F 9.5 °F 17.6 °F 86% 29.72 in 0.8 mi NE 11.5 mph 16.1 mph N/A Snow Light Snow
11:06 AM 21.2 °F 11.7 °F 17.6 °F 86% 29.70 in 0.8 mi NE 8.1 mph - N/A Snow Light Snow
11:27 AM 21.2 °F 10.1 °F 19.4 °F 93% 29.68 in 0.5 mi NE 10.4 mph - 0.01 in Snow Light Snow
11:47 AM 23.0 °F 12.4 °F 21.2 °F 93% 29.67 in 0.8 mi NE 10.4 mph - 0.01 in Snow Light Snow
12:07 PM 23.0 °F 11.7 °F 19.4 °F 86% 29.64 in 0.8 mi NE 11.5 mph - N/A Snow Light Snow
12:27 PM 23.0 °F 11.1 °F 19.4 °F 86% 29.61 in 1.0 mi NE 12.7 mph 18.4 mph N/A   Overcast
12:46 PM 23.0 °F 11.7 °F 19.4 °F 86% 29.59 in 2.5 mi NE 11.5 mph - N/A   Overcast
1:07 PM 23.0 °F 12.4 °F 19.4 °F 86% 29.58 in 7.0 mi NE 10.4 mph - N/A   Overcast
1:27 PM 23.0 °F 12.4 °F 21.2 °F 93% 29.55 in 7.0 mi NE 10.4 mph - N/A   Overcast
1:46 PM 23.0 °F 12.4 °F 19.4 °F 86% 29.54 in 4.0 mi NE 10.4 mph - N/A   Overcast
2:07 PM 23.0 °F 13.9 °F 21.2 °F 93% 29.54 in 1.0 mi NE 8.1 mph - N/A Snow Light Snow
2:27 PM 23.0 °F 12.4 °F 21.2 °F 93% 29.54 in 0.8 mi NNE 10.4 mph - 0.01 in Snow Light Snow
2:47 PM 23.0 °F 12.4 °F 21.2 °F 93% 29.54 in 1.0 mi NNE 10.4 mph 16.1 mph 0.01 in Snow Light Snow
3:07 PM 23.0 °F 11.1 °F 21.2 °F 93% 29.54 in 0.8 mi NNE 12.7 mph 17.3 mph N/A Snow Light Snow
3:27 PM 21.2 °F 9.5 °F 19.4 °F 93% 29.53 in 0.5 mi NNE 11.5 mph 19.6 mph 0.01 in Snow Light Snow
3:47 PM 21.2 °F 9.5 °F 19.4 °F 93% 29.52 in 0.8 mi NE 11.5 mph - 0.01 in Snow Light Snow
4:07 PM 21.2 °F 8.9 °F 19.4 °F 93% 29.50 in 1.0 mi NE 12.7 mph 20.7 mph N/A Snow Light Snow
4:26 PM 21.2 °F 8.9 °F 17.6 °F 86% 29.48 in 1.8 mi NE 12.7 mph 17.3 mph N/A Snow Light Snow
4:47 PM 21.2 °F 8.3 °F 19.4 °F 93% 29.45 in 1.8 mi ENE 13.8 mph 23.0 mph N/A Snow Light Snow
5:07 PM 21.2 °F 9.5 °F 19.4 °F 93% 29.44 in 2.5 mi NE 11.5 mph 19.6 mph N/A Snow Light Snow
5:26 PM 21.2 °F 10.1 °F 17.6 °F 86% 29.44 in 2.5 mi NE 10.4 mph 18.4 mph N/A Snow Light Snow
5:47 PM 21.2 °F 11.7 °F 17.6 °F 86% 29.46 in 2.0 mi North 8.1 mph 16.1 mph 0.01 in Snow Light Snow
6:07 PM 21.2 °F 10.1 °F 17.6 °F 86% 29.44 in 1.8 mi NNE 10.4 mph - N/A Snow Light Snow
6:27 PM 21.2 °F 10.9 °F 17.6 °F 86% 29.45 in 1.5 mi NNE 9.2 mph - N/A Snow Light Snow
6:47 PM 21.2 °F 8.9 °F 17.6 °F 86% 29.43 in 3.0 mi NNE 12.7 mph 18.4 mph N/A Snow Light Snow
7:06 PM 21.2 °F 10.9 °F 17.6 °F 86% 29.41 in 4.0 mi North 9.2 mph 17.3 mph N/A Snow Light Snow
7:27 PM 21.2 °F 12.6 °F 17.6 °F 86% 29.41 in 7.0 mi North 6.9 mph 18.4 mph N/A   Overcast
7:47 PM 21.2 °F 10.9 °F 15.8 °F 80% 29.40 in 10.0 mi North 9.2 mph 18.4 mph N/A   Overcast
8:06 PM 21.2 °F 11.7 °F 15.8 °F 80% 29.40 in 10.0 mi North 8.1 mph - N/A Snow Light Snow
8:27 PM 21.2 °F 10.9 °F 15.8 °F 80% 29.42 in 10.0 mi North 9.2 mph 18.4 mph N/A   Overcast
8:47 PM 19.4 °F 7.9 °F 14.0 °F 80% 29.43 in 10.0 mi NNW 10.4 mph 17.3 mph N/A Snow Light Snow
9:06 PM 19.4 °F 7.9 °F 14.0 °F 80% 29.40 in 10.0 mi North 10.4 mph - N/A   Overcast
9:27 PM 19.4 °F 7.2 °F 14.0 °F 80% 29.39 in 10.0 mi NNE 11.5 mph 19.6 mph N/A   Overcast
9:47 PM 19.4 °F 7.2 °F 14.0 °F 80% 29.39 in 10.0 mi NNE 11.5 mph - N/A Snow Light Snow
10:06 PM 19.4 °F 7.2 °F 14.0 °F 80% 29.39 in 10.0 mi NNE 11.5 mph - N/A   Overcast
10:27 PM 19.4 °F 9.5 °F 14.0 °F 80% 29.38 in 7.0 mi NNE 8.1 mph - N/A Snow Light Snow
10:47 PM 17.6 °F 6.4 °F 14.0 °F 86% 29.38 in 10.0 mi NNE 9.2 mph 16.1 mph N/A Snow Light Snow
11:07 PM 17.6 °F 9.3 °F 14.0 °F 86% 29.38 in 10.0 mi North 5.8 mph - N/A Snow Light Snow
11:27 PM 17.6 °F 6.4 °F 14.0 °F 86% 29.42 in 5.0 mi SW 9.2 mph - N/A Snow Light Snow
11:47 PM 17.6 °F 8.2 °F 14.0 °F 86% 29.42 in 2.0 mi WNW 6.9 mph - N/A Snow Light Snow